Terug naar catalogus

STARLINK-35268

ActiefCommunicatieSSO
NORAD 65810·PAYLOAD·🇺🇸 United States

Gelanceerd Sep 26, 2025 vanaf Vandenberg Space Force Base

Loading…

Volgende Passages (komende 24 uur)

TLE

VersSource: CelesTrak SupGP

Epoch: Sep 15, 2026, 03:54 UTC

1 65810C 25218V   26258.16298611 -.00023594  00000+0 -73243-3 0  2589
2 65810  97.2849 115.5847 0001881 101.4848 259.7612 15.33449623    19

Volg STARLINK-35268 in realtime met AllMySat

Download on the App Store